Year,Month,Day,Hour,Minute,Value (Times are PST for temperature in C)
2016,05,06,00,00,14.30
2016,05,06,00,01,14.30
2016,05,06,00,02,14.30
2016,05,06,00,03,14.30
2016,05,06,00,04,14.30
2016,05,06,00,05,14.30
2016,05,06,00,06,14.30
2016,05,06,00,07,14.30
2016,05,06,00,08,14.30
2016,05,06,00,09,14.30
2016,05,06,00,10,14.30
2016,05,06,00,11,14.30
2016,05,06,00,12,14.30
2016,05,06,00,13,14.30
2016,05,06,00,14,14.20
2016,05,06,00,15,14.20
2016,05,06,00,16,14.20
2016,05,06,00,17,14.20
2016,05,06,00,18,14.10
2016,05,06,00,19,14.10
2016,05,06,00,20,14.10
2016,05,06,00,21,14.10
2016,05,06,00,22,14.10
2016,05,06,00,23,14.00
2016,05,06,00,24,14.00
2016,05,06,00,25,13.90
2016,05,06,00,26,13.90
2016,05,06,00,27,13.90
2016,05,06,00,28,13.90
2016,05,06,00,29,13.90
2016,05,06,00,30,13.80
2016,05,06,00,31,13.80
2016,05,06,00,32,13.80
2016,05,06,00,33,13.80
2016,05,06,00,34,13.80
2016,05,06,00,35,13.80
2016,05,06,00,36,13.80
2016,05,06,00,37,13.80
2016,05,06,00,38,13.70
2016,05,06,00,39,13.70
2016,05,06,00,40,13.70
2016,05,06,00,41,13.60
2016,05,06,00,42,13.60
2016,05,06,00,43,13.60
2016,05,06,00,44,13.50
2016,05,06,00,45,13.50
2016,05,06,00,46,13.40
2016,05,06,00,47,13.40
2016,05,06,00,48,13.40
2016,05,06,00,49,13.40
2016,05,06,00,50,13.40
2016,05,06,00,51,13.30
2016,05,06,00,52,13.30
2016,05,06,00,53,13.30
2016,05,06,00,54,13.30
2016,05,06,00,55,13.20
2016,05,06,00,56,13.20
2016,05,06,00,57,13.20
2016,05,06,00,58,13.20
2016,05,06,00,59,13.20
2016,05,06,01,00,13.20
2016,05,06,01,01,13.20
2016,05,06,01,02,13.20
2016,05,06,01,03,13.10
2016,05,06,01,04,13.10
2016,05,06,01,05,13.10
2016,05,06,01,06,13.10
2016,05,06,01,07,13.10
2016,05,06,01,08,13.10
2016,05,06,01,09,13.10
2016,05,06,01,10,13.10
2016,05,06,01,11,13.10
2016,05,06,01,12,13.20
2016,05,06,01,13,13.20
2016,05,06,01,14,13.20
2016,05,06,01,15,13.20
2016,05,06,01,16,13.20
2016,05,06,01,17,13.30
2016,05,06,01,18,13.30
2016,05,06,01,19,13.30
2016,05,06,01,20,13.30
2016,05,06,01,21,13.30
2016,05,06,01,22,13.20
2016,05,06,01,23,13.20
2016,05,06,01,24,13.20
2016,05,06,01,25,13.20
2016,05,06,01,26,13.20
2016,05,06,01,27,13.20
2016,05,06,01,28,13.20
2016,05,06,01,29,13.20
2016,05,06,01,30,13.20
2016,05,06,01,31,13.20
2016,05,06,01,32,13.10
2016,05,06,01,33,13.10
2016,05,06,01,34,13.10
2016,05,06,01,35,13.10
2016,05,06,01,36,13.10
2016,05,06,01,37,13.10
2016,05,06,01,38,13.10
2016,05,06,01,39,13.10
2016,05,06,01,40,13.10
2016,05,06,01,41,13.20
2016,05,06,01,42,13.20
2016,05,06,01,43,13.20
2016,05,06,01,44,13.20
2016,05,06,01,45,13.20
2016,05,06,01,46,13.10
2016,05,06,01,47,13.20
2016,05,06,01,48,13.20
2016,05,06,01,49,13.20
2016,05,06,01,50,13.20
2016,05,06,01,51,13.20
2016,05,06,01,52,13.20
2016,05,06,01,53,13.20
2016,05,06,01,54,13.20
2016,05,06,01,55,13.20
2016,05,06,01,56,13.20
2016,05,06,01,57,13.20
2016,05,06,01,58,13.20
2016,05,06,01,59,13.20
2016,05,06,02,00,13.20
2016,05,06,02,01,13.20
2016,05,06,02,02,13.20
2016,05,06,02,03,13.20
2016,05,06,02,04,13.20
2016,05,06,02,05,13.20
2016,05,06,02,06,13.20
2016,05,06,02,07,13.20
2016,05,06,02,08,13.20
2016,05,06,02,09,13.20
2016,05,06,02,10,13.20
2016,05,06,02,11,13.20
2016,05,06,02,12,13.20
2016,05,06,02,13,13.20
2016,05,06,02,14,13.20
2016,05,06,02,15,13.20
2016,05,06,02,16,13.20
2016,05,06,02,17,13.20
2016,05,06,02,18,13.30
2016,05,06,02,19,13.30
2016,05,06,02,20,13.30
2016,05,06,02,21,13.30
2016,05,06,02,22,13.30
2016,05,06,02,23,13.30
2016,05,06,02,24,13.30
2016,05,06,02,25,13.30
2016,05,06,02,26,13.30
2016,05,06,02,27,13.30
2016,05,06,02,28,13.30
2016,05,06,02,29,13.30
2016,05,06,02,30,13.30
2016,05,06,02,31,13.30
2016,05,06,02,32,13.30
2016,05,06,02,33,13.30
2016,05,06,02,34,13.30
2016,05,06,02,35,13.30
2016,05,06,02,36,13.30
2016,05,06,02,37,13.30
2016,05,06,02,38,13.30
2016,05,06,02,39,13.30
2016,05,06,02,40,13.20
2016,05,06,02,41,13.20
2016,05,06,02,42,13.20
2016,05,06,02,43,13.20
2016,05,06,02,44,13.20
2016,05,06,02,45,13.20
2016,05,06,02,46,13.20
2016,05,06,02,47,13.30
2016,05,06,02,48,13.30
2016,05,06,02,49,13.30
2016,05,06,02,50,13.30
2016,05,06,02,51,13.30
2016,05,06,02,52,13.30
2016,05,06,02,53,13.20
2016,05,06,02,54,13.20
2016,05,06,02,55,13.20
2016,05,06,02,56,13.20
2016,05,06,02,57,13.20
2016,05,06,02,58,13.20
2016,05,06,02,59,13.20
2016,05,06,03,00,13.20
2016,05,06,03,01,13.20
2016,05,06,03,02,13.20
2016,05,06,03,03,13.20
2016,05,06,03,04,13.20
2016,05,06,03,05,13.20
2016,05,06,03,06,13.10
2016,05,06,03,07,13.10
2016,05,06,03,08,13.10
2016,05,06,03,09,13.10
2016,05,06,03,10,13.10
2016,05,06,03,11,13.10
2016,05,06,03,12,13.10
2016,05,06,03,13,13.00
2016,05,06,03,14,13.00
2016,05,06,03,15,13.00
2016,05,06,03,16,13.00
2016,05,06,03,17,13.00
2016,05,06,03,18,12.90
2016,05,06,03,19,12.90
2016,05,06,03,20,12.90
2016,05,06,03,21,12.90
2016,05,06,03,22,12.90
2016,05,06,03,23,12.90
2016,05,06,03,24,12.90
2016,05,06,03,25,12.80
2016,05,06,03,26,12.80
2016,05,06,03,27,12.80
2016,05,06,03,28,12.80
2016,05,06,03,29,12.70
2016,05,06,03,30,12.70
2016,05,06,03,31,12.60
2016,05,06,03,32,12.60
2016,05,06,03,33,12.60
2016,05,06,03,34,12.60
2016,05,06,03,35,12.50
2016,05,06,03,36,12.50
2016,05,06,03,37,12.40
2016,05,06,03,38,12.40
2016,05,06,03,39,12.40
2016,05,06,03,40,12.30
2016,05,06,03,41,12.30
2016,05,06,03,42,12.30
2016,05,06,03,43,12.30
2016,05,06,03,44,12.20
2016,05,06,03,45,12.20
2016,05,06,03,46,12.20
2016,05,06,03,47,12.20
2016,05,06,03,48,12.10
2016,05,06,03,49,12.10
2016,05,06,03,50,12.10
2016,05,06,03,51,12.00
2016,05,06,03,52,12.00
2016,05,06,03,53,12.00
2016,05,06,03,54,11.90
2016,05,06,03,55,11.90
2016,05,06,03,56,11.90
2016,05,06,03,57,11.90
2016,05,06,03,58,11.90
2016,05,06,03,59,11.90
2016,05,06,04,00,11.90
2016,05,06,04,01,12.00
2016,05,06,04,02,11.90
2016,05,06,04,03,11.90
2016,05,06,04,04,11.90
2016,05,06,04,05,12.00
2016,05,06,04,06,12.00
2016,05,06,04,07,12.00
2016,05,06,04,08,12.00
2016,05,06,04,09,12.00
2016,05,06,04,10,12.00
2016,05,06,04,11,12.00
2016,05,06,04,12,11.90
2016,05,06,04,13,11.90
2016,05,06,04,14,11.90
2016,05,06,04,15,11.90
2016,05,06,04,16,11.90
2016,05,06,04,17,11.90
2016,05,06,04,18,11.90
2016,05,06,04,19,11.80
2016,05,06,04,20,11.80
2016,05,06,04,21,11.80
2016,05,06,04,22,11.80
2016,05,06,04,23,11.80
2016,05,06,04,24,11.80
2016,05,06,04,25,11.80
2016,05,06,04,26,11.80
2016,05,06,04,27,11.70
2016,05,06,04,28,11.70
2016,05,06,04,29,11.70
2016,05,06,04,30,11.70
2016,05,06,04,31,11.70
2016,05,06,04,32,11.60
2016,05,06,04,33,11.60
2016,05,06,04,34,11.60
2016,05,06,04,35,11.60
2016,05,06,04,36,11.50
2016,05,06,04,37,11.50
2016,05,06,04,38,11.50
2016,05,06,04,39,11.40
2016,05,06,04,40,11.40
2016,05,06,04,41,11.40
2016,05,06,04,42,11.40
2016,05,06,04,43,11.40
2016,05,06,04,44,11.40
2016,05,06,04,45,11.30
2016,05,06,04,46,11.30
2016,05,06,04,47,11.30
2016,05,06,04,48,11.30
2016,05,06,04,49,11.30
2016,05,06,04,50,11.30
2016,05,06,04,51,11.30
2016,05,06,04,52,11.20
2016,05,06,04,53,11.20
2016,05,06,04,54,11.20
2016,05,06,04,55,11.20
2016,05,06,04,56,11.10
2016,05,06,04,57,11.10
2016,05,06,04,58,11.10
2016,05,06,04,59,11.10
2016,05,06,05,00,11.10
2016,05,06,05,01,11.10
2016,05,06,05,02,11.10
2016,05,06,05,03,11.00
2016,05,06,05,04,11.00
2016,05,06,05,05,11.00
2016,05,06,05,06,11.00
2016,05,06,05,07,11.00
2016,05,06,05,08,11.00
2016,05,06,05,09,11.00
2016,05,06,05,10,11.00
2016,05,06,05,11,10.90
2016,05,06,05,12,10.90
2016,05,06,05,13,10.90
2016,05,06,05,14,10.90
2016,05,06,05,15,10.90
2016,05,06,05,16,10.80
2016,05,06,05,17,10.80
2016,05,06,05,18,10.80
2016,05,06,05,19,10.80
2016,05,06,05,20,10.80
2016,05,06,05,21,10.80
2016,05,06,05,22,10.80
2016,05,06,05,23,10.80
2016,05,06,05,24,10.80
2016,05,06,05,25,10.80
2016,05,06,05,26,10.80
2016,05,06,05,27,10.70
2016,05,06,05,28,10.70
2016,05,06,05,29,10.70
2016,05,06,05,30,10.70
2016,05,06,05,31,10.70
2016,05,06,05,32,10.70
2016,05,06,05,33,10.70
2016,05,06,05,34,10.70
2016,05,06,05,35,10.70
2016,05,06,05,36,10.70
2016,05,06,05,37,10.70
2016,05,06,05,38,10.70
2016,05,06,05,39,10.70
2016,05,06,05,40,10.60
2016,05,06,05,41,10.60
2016,05,06,05,42,10.60
2016,05,06,05,43,10.60
2016,05,06,05,44,10.60
2016,05,06,05,45,10.60
2016,05,06,05,46,10.60
2016,05,06,05,47,10.60
2016,05,06,05,48,10.60
2016,05,06,05,49,10.60
2016,05,06,05,50,10.60
2016,05,06,05,51,10.60
2016,05,06,05,52,10.60
2016,05,06,05,53,10.60
2016,05,06,05,54,10.60
2016,05,06,05,55,10.60
2016,05,06,05,56,10.60
2016,05,06,05,57,10.60
2016,05,06,05,58,10.60
2016,05,06,05,59,10.60
2016,05,06,06,00,10.60
2016,05,06,06,01,10.60
2016,05,06,06,02,10.60
2016,05,06,06,03,10.60
2016,05,06,06,04,10.60
2016,05,06,06,05,10.60
2016,05,06,06,06,10.60
2016,05,06,06,07,10.60
2016,05,06,06,08,10.60
2016,05,06,06,09,10.60
2016,05,06,06,10,10.60
2016,05,06,06,11,10.60
2016,05,06,06,12,10.60
2016,05,06,06,13,10.60
2016,05,06,06,14,10.60
2016,05,06,06,15,10.60
2016,05,06,06,16,10.60
2016,05,06,06,17,10.60
2016,05,06,06,18,10.60
2016,05,06,06,19,10.60
2016,05,06,06,20,10.60
2016,05,06,06,21,10.60
2016,05,06,06,22,10.60
2016,05,06,06,23,10.60
2016,05,06,06,24,10.70
2016,05,06,06,25,10.70
2016,05,06,06,26,10.70
2016,05,06,06,27,10.70
2016,05,06,06,28,10.70
2016,05,06,06,29,10.70
2016,05,06,06,30,10.70
2016,05,06,06,31,10.70
2016,05,06,06,32,10.70
2016,05,06,06,33,10.70
2016,05,06,06,34,10.70
2016,05,06,06,35,10.80
2016,05,06,06,36,10.80
2016,05,06,06,37,10.80
2016,05,06,06,38,10.80
2016,05,06,06,39,10.80
2016,05,06,06,40,10.80
2016,05,06,06,41,10.90
2016,05,06,06,42,10.90
2016,05,06,06,43,10.90
2016,05,06,06,44,10.90
2016,05,06,06,45,10.90
2016,05,06,06,46,10.90
2016,05,06,06,47,10.90
2016,05,06,06,48,10.90
2016,05,06,06,49,10.90
2016,05,06,06,50,11.00
2016,05,06,06,51,11.00
2016,05,06,06,52,11.00
2016,05,06,06,53,11.00
2016,05,06,06,54,11.00
2016,05,06,06,55,11.10
2016,05,06,06,56,11.00
2016,05,06,06,57,11.10
2016,05,06,06,58,11.10
2016,05,06,06,59,11.10
2016,05,06,07,00,11.10
2016,05,06,07,01,11.20
2016,05,06,07,02,11.20
2016,05,06,07,03,11.20
2016,05,06,07,04,11.20
2016,05,06,07,05,11.20
2016,05,06,07,06,11.20
2016,05,06,07,07,11.20
2016,05,06,07,08,11.20
2016,05,06,07,09,11.20
2016,05,06,07,10,11.20
2016,05,06,07,11,11.20
2016,05,06,07,12,11.20
2016,05,06,07,13,11.30
2016,05,06,07,14,11.30
2016,05,06,07,15,11.30
2016,05,06,07,16,11.30
2016,05,06,07,17,11.30
2016,05,06,07,18,11.30
2016,05,06,07,19,11.30
2016,05,06,07,20,11.30
2016,05,06,07,21,11.30
2016,05,06,07,22,11.30
2016,05,06,07,23,11.30
2016,05,06,07,24,11.40
2016,05,06,07,25,11.40
2016,05,06,07,26,11.40
2016,05,06,07,27,11.40
2016,05,06,07,28,11.40
2016,05,06,07,29,11.40
2016,05,06,07,30,11.40
2016,05,06,07,31,11.40
2016,05,06,07,32,11.40
2016,05,06,07,33,11.40
2016,05,06,07,34,11.40
2016,05,06,07,35,11.40
2016,05,06,07,36,11.40
2016,05,06,07,37,11.40
2016,05,06,07,38,11.40
2016,05,06,07,39,11.40
2016,05,06,07,40,11.40
2016,05,06,07,41,11.40
2016,05,06,07,42,11.40
2016,05,06,07,43,11.50
2016,05,06,07,44,11.50
2016,05,06,07,45,11.50
2016,05,06,07,46,11.50
2016,05,06,07,47,11.60
2016,05,06,07,48,11.60
2016,05,06,07,49,11.60
2016,05,06,07,50,11.60
2016,05,06,07,51,11.60
2016,05,06,07,52,11.60
2016,05,06,07,53,11.60
2016,05,06,07,54,11.60
2016,05,06,07,55,11.60
2016,05,06,07,56,11.70
2016,05,06,07,57,11.70
2016,05,06,07,58,11.70
2016,05,06,07,59,11.70
2016,05,06,08,00,11.70
2016,05,06,08,01,11.70
2016,05,06,08,02,11.70
2016,05,06,08,03,11.70
2016,05,06,08,04,11.70
2016,05,06,08,05,11.70
2016,05,06,08,06,11.70
2016,05,06,08,07,11.70
2016,05,06,08,08,11.80
2016,05,06,08,09,11.80
2016,05,06,08,10,11.80
2016,05,06,08,11,11.90
2016,05,06,08,12,11.90
2016,05,06,08,13,11.90
2016,05,06,08,14,12.00
2016,05,06,08,15,12.00
2016,05,06,08,16,12.10
2016,05,06,08,17,12.10
2016,05,06,08,18,12.10
2016,05,06,08,19,12.10
2016,05,06,08,20,12.20
2016,05,06,08,21,12.20
2016,05,06,08,22,12.30
2016,05,06,08,23,12.30
2016,05,06,08,24,12.30
2016,05,06,08,25,12.30
2016,05,06,08,26,12.40
2016,05,06,08,27,12.40
2016,05,06,08,28,12.40
2016,05,06,08,29,12.50
2016,05,06,08,30,12.50
2016,05,06,08,31,12.60
2016,05,06,08,32,12.60
2016,05,06,08,33,12.60
2016,05,06,08,34,12.70
2016,05,06,08,35,12.80
2016,05,06,08,36,12.80
2016,05,06,08,37,12.80
2016,05,06,08,38,12.80
2016,05,06,08,39,12.80
2016,05,06,08,40,12.90
2016,05,06,08,41,12.90
2016,05,06,08,42,12.90
2016,05,06,08,43,12.90
2016,05,06,08,44,12.90
2016,05,06,08,45,13.00
2016,05,06,08,46,12.90
2016,05,06,08,47,13.00
2016,05,06,08,48,13.00
2016,05,06,08,49,13.00
2016,05,06,08,50,13.00
2016,05,06,08,51,13.00
2016,05,06,08,52,13.10
2016,05,06,08,53,13.10
2016,05,06,08,54,13.10
2016,05,06,08,55,13.10
2016,05,06,08,56,13.20
2016,05,06,08,57,13.20
2016,05,06,08,58,13.20
2016,05,06,08,59,13.20
2016,05,06,09,00,13.20
2016,05,06,09,01,13.20
2016,05,06,09,02,13.30
2016,05,06,09,03,13.30
2016,05,06,09,04,13.30
2016,05,06,09,05,13.40
2016,05,06,09,06,13.40
2016,05,06,09,07,13.40
2016,05,06,09,08,13.40
2016,05,06,09,09,13.50
2016,05,06,09,10,13.50
2016,05,06,09,11,13.60
2016,05,06,09,12,13.60
2016,05,06,09,13,13.70
2016,05,06,09,14,13.70
2016,05,06,09,15,13.80
2016,05,06,09,16,13.80
2016,05,06,09,17,13.90
2016,05,06,09,18,13.90
2016,05,06,09,19,13.90
2016,05,06,09,20,14.00
2016,05,06,09,21,14.00
2016,05,06,09,22,14.10
2016,05,06,09,23,14.10
2016,05,06,09,24,14.20
2016,05,06,09,25,14.30
2016,05,06,09,26,14.30
2016,05,06,09,27,14.40
2016,05,06,09,28,14.40
2016,05,06,09,29,14.40
2016,05,06,09,30,14.50
2016,05,06,09,31,14.50
2016,05,06,09,32,14.50
2016,05,06,09,33,14.60
2016,05,06,09,34,14.60
2016,05,06,09,35,14.60
2016,05,06,09,36,14.60
2016,05,06,09,37,14.70
2016,05,06,09,38,14.70
2016,05,06,09,39,14.70
2016,05,06,09,40,14.70
2016,05,06,09,41,14.80
2016,05,06,09,42,14.80
2016,05,06,09,43,14.80
2016,05,06,09,44,14.80
2016,05,06,09,45,14.80
2016,05,06,09,46,14.80
2016,05,06,09,47,14.90
2016,05,06,09,48,14.90
2016,05,06,09,49,14.90
2016,05,06,09,50,15.00
2016,05,06,09,51,15.00
2016,05,06,09,52,15.10
2016,05,06,09,53,15.10
2016,05,06,09,54,15.10
2016,05,06,09,55,15.20
2016,05,06,09,56,15.20
2016,05,06,09,57,15.30
2016,05,06,09,58,15.30
2016,05,06,09,59,15.40
2016,05,06,10,00,15.40
2016,05,06,10,01,15.50
2016,05,06,10,02,15.50
2016,05,06,10,03,15.50
2016,05,06,10,04,15.50
2016,05,06,10,05,15.50
2016,05,06,10,06,15.50
2016,05,06,10,07,15.50
2016,05,06,10,08,15.60
2016,05,06,10,09,15.60
2016,05,06,10,10,15.60
2016,05,06,10,11,15.60
2016,05,06,10,12,15.60
2016,05,06,10,13,15.60
2016,05,06,10,14,15.70
2016,05,06,10,15,15.70
2016,05,06,10,16,15.70
2016,05,06,10,17,15.70
2016,05,06,10,18,15.70
2016,05,06,10,19,15.70
2016,05,06,10,20,15.70
2016,05,06,10,21,15.70
2016,05,06,10,22,15.60
2016,05,06,10,23,15.60
2016,05,06,10,24,15.60
2016,05,06,10,25,15.60
2016,05,06,10,26,15.70
2016,05,06,10,27,15.70
2016,05,06,10,28,15.70
2016,05,06,10,29,15.70
2016,05,06,10,30,15.70
2016,05,06,10,31,15.70
2016,05,06,10,32,15.80
2016,05,06,10,33,15.80
2016,05,06,10,34,15.80
2016,05,06,10,35,15.80
2016,05,06,10,36,15.90
2016,05,06,10,37,15.90
2016,05,06,10,38,16.00
2016,05,06,10,39,16.00
2016,05,06,10,40,16.10
2016,05,06,10,41,16.10
2016,05,06,10,42,16.10
2016,05,06,10,43,16.10
2016,05,06,10,44,16.10
2016,05,06,10,45,16.00
2016,05,06,10,46,16.00
2016,05,06,10,47,15.90
2016,05,06,10,48,16.00
2016,05,06,10,49,16.00
2016,05,06,10,50,16.10
2016,05,06,10,51,16.20
2016,05,06,10,52,16.30
2016,05,06,10,53,16.30
2016,05,06,10,54,16.40
2016,05,06,10,55,16.50
2016,05,06,10,56,16.50
2016,05,06,10,57,16.60
2016,05,06,10,58,16.70
2016,05,06,10,59,16.70
2016,05,06,11,00,16.70
2016,05,06,11,01,16.70
2016,05,06,11,02,16.70
2016,05,06,11,03,16.70
2016,05,06,11,04,16.70
2016,05,06,11,05,16.70
2016,05,06,11,06,16.60
2016,05,06,11,07,16.60
2016,05,06,11,08,16.70
2016,05,06,11,09,16.60
2016,05,06,11,10,16.60
2016,05,06,11,11,16.60
2016,05,06,11,12,16.60
2016,05,06,11,13,16.60
2016,05,06,11,14,16.70
2016,05,06,11,15,16.70
2016,05,06,11,16,16.70
2016,05,06,11,17,16.80
2016,05,06,11,18,16.80
2016,05,06,11,19,16.90
2016,05,06,11,20,16.90
2016,05,06,11,21,16.90
2016,05,06,11,22,17.00
2016,05,06,11,23,17.10
2016,05,06,11,24,17.20
2016,05,06,11,25,17.30
2016,05,06,11,26,17.30
2016,05,06,11,27,17.30
2016,05,06,11,28,17.20
2016,05,06,11,29,17.20
2016,05,06,11,30,17.20
2016,05,06,11,31,17.10
2016,05,06,11,32,17.20
2016,05,06,11,33,17.20
2016,05,06,11,34,17.30
2016,05,06,11,35,17.30
2016,05,06,11,36,17.40
2016,05,06,11,37,17.50
2016,05,06,11,38,17.50
2016,05,06,11,39,17.60
2016,05,06,11,40,17.70
2016,05,06,11,41,17.70
2016,05,06,11,42,17.80
2016,05,06,11,43,17.80
2016,05,06,11,44,17.90
2016,05,06,11,45,17.90
2016,05,06,11,46,18.00
2016,05,06,11,47,18.10
2016,05,06,11,48,18.20
2016,05,06,11,49,18.20
2016,05,06,11,50,18.30
2016,05,06,11,51,18.40
2016,05,06,11,52,18.40
2016,05,06,11,53,18.40
2016,05,06,11,54,18.50
2016,05,06,11,55,18.60
2016,05,06,11,56,18.60
2016,05,06,11,57,18.70
2016,05,06,11,58,18.80
2016,05,06,11,59,18.80
2016,05,06,12,00,18.90
2016,05,06,12,01,18.90
2016,05,06,12,02,19.00
2016,05,06,12,03,19.20
2016,05,06,12,04,19.20
2016,05,06,12,05,19.30
2016,05,06,12,06,19.30
2016,05,06,12,07,19.30
2016,05,06,12,08,19.30
2016,05,06,12,09,19.30
2016,05,06,12,10,19.40
2016,05,06,12,11,19.40
2016,05,06,12,12,19.50
2016,05,06,12,13,19.50
2016,05,06,12,14,19.50
2016,05,06,12,15,19.50
2016,05,06,12,16,19.50
2016,05,06,12,17,19.50
2016,05,06,12,18,19.50
2016,05,06,12,19,19.50
2016,05,06,12,20,19.50
2016,05,06,12,21,19.50
2016,05,06,12,22,19.50
2016,05,06,12,23,19.60
2016,05,06,12,24,19.60
2016,05,06,12,25,19.60
2016,05,06,12,26,19.70
2016,05,06,12,27,19.70
2016,05,06,12,28,19.70
2016,05,06,12,29,19.80
2016,05,06,12,30,19.80
2016,05,06,12,31,19.90
2016,05,06,12,32,20.00
2016,05,06,12,33,20.10
2016,05,06,12,34,20.10
2016,05,06,12,35,20.10
2016,05,06,12,36,20.20
2016,05,06,12,37,20.20
2016,05,06,12,38,20.30
2016,05,06,12,39,20.40
2016,05,06,12,40,20.50
2016,05,06,12,41,20.60
2016,05,06,12,42,20.60
2016,05,06,12,43,20.70
2016,05,06,12,44,20.70
2016,05,06,12,45,20.80
2016,05,06,12,46,20.80
2016,05,06,12,47,20.80
2016,05,06,12,48,20.80
2016,05,06,12,49,20.90
2016,05,06,12,50,21.00
2016,05,06,12,51,21.00
2016,05,06,12,52,21.00
2016,05,06,12,53,21.00
2016,05,06,12,54,21.00
2016,05,06,12,55,21.00
2016,05,06,12,56,20.90
2016,05,06,12,57,20.90
2016,05,06,12,58,20.90
2016,05,06,12,59,20.90
2016,05,06,13,00,20.80
2016,05,06,13,01,20.80
2016,05,06,13,02,20.70
2016,05,06,13,03,20.60
2016,05,06,13,04,20.60
2016,05,06,13,05,20.50
2016,05,06,13,06,20.50
2016,05,06,13,07,20.50
2016,05,06,13,08,20.50
2016,05,06,13,09,20.50
2016,05,06,13,10,20.60
2016,05,06,13,11,20.60
2016,05,06,13,12,20.70
2016,05,06,13,13,20.80
2016,05,06,13,14,20.80
2016,05,06,13,15,20.90
2016,05,06,13,16,20.90
2016,05,06,13,17,20.90
2016,05,06,13,18,20.90
2016,05,06,13,19,20.90
2016,05,06,13,20,20.90
2016,05,06,13,21,20.90
2016,05,06,13,22,21.00
2016,05,06,13,23,21.00
2016,05,06,13,24,21.00
2016,05,06,13,25,21.00
2016,05,06,13,26,21.00
2016,05,06,13,27,20.90
2016,05,06,13,28,20.90
2016,05,06,13,29,20.90
2016,05,06,13,30,20.80
2016,05,06,13,31,20.80
2016,05,06,13,32,20.80
2016,05,06,13,33,20.90
2016,05,06,13,34,20.90
2016,05,06,13,35,20.90
2016,05,06,13,36,20.90
2016,05,06,13,37,21.00
2016,05,06,13,38,21.00
2016,05,06,13,39,21.00
2016,05,06,13,40,21.00
2016,05,06,13,41,20.90
2016,05,06,13,42,20.90
2016,05,06,13,43,20.80
2016,05,06,13,44,20.80
2016,05,06,13,45,20.90
2016,05,06,13,46,21.00
2016,05,06,13,47,21.00
2016,05,06,13,48,21.00
2016,05,06,13,49,20.90
2016,05,06,13,50,20.90
2016,05,06,13,51,20.90
2016,05,06,13,52,20.90
2016,05,06,13,53,20.90
2016,05,06,13,54,20.90
2016,05,06,13,55,20.90
2016,05,06,13,56,21.00
2016,05,06,13,57,21.10
2016,05,06,13,58,21.20
2016,05,06,13,59,21.20
2016,05,06,14,00,21.30
2016,05,06,14,01,21.30
2016,05,06,14,02,21.30
2016,05,06,14,03,21.40
2016,05,06,14,04,21.40
2016,05,06,14,05,21.40
2016,05,06,14,06,21.30
2016,05,06,14,07,21.30
2016,05,06,14,08,21.30
2016,05,06,14,09,21.40
2016,05,06,14,10,21.40
2016,05,06,14,11,21.50
2016,05,06,14,12,21.50
2016,05,06,14,13,21.60
2016,05,06,14,14,21.70
2016,05,06,14,15,21.80
2016,05,06,14,16,21.90
2016,05,06,14,17,22.10
2016,05,06,14,18,22.20
2016,05,06,14,19,22.30
2016,05,06,14,20,22.30
2016,05,06,14,21,22.50
2016,05,06,14,22,22.60
2016,05,06,14,23,22.70
2016,05,06,14,24,22.70
2016,05,06,14,25,22.80
2016,05,06,14,26,22.80
2016,05,06,14,27,22.80
2016,05,06,14,28,22.80
2016,05,06,14,29,22.80
2016,05,06,14,30,22.80
2016,05,06,14,31,22.80
2016,05,06,14,32,22.80
2016,05,06,14,33,22.80
2016,05,06,14,34,22.80
2016,05,06,14,35,22.80
2016,05,06,14,36,22.80
2016,05,06,14,37,22.80
2016,05,06,14,38,22.80
2016,05,06,14,39,22.80
2016,05,06,14,40,22.80
2016,05,06,14,41,22.80
2016,05,06,14,42,22.80
2016,05,06,14,43,22.80
2016,05,06,14,44,22.80
2016,05,06,14,45,22.80
2016,05,06,14,46,22.70
2016,05,06,14,47,22.50
2016,05,06,14,48,22.50
2016,05,06,14,49,22.40
2016,05,06,14,50,22.50
2016,05,06,14,51,22.60
2016,05,06,14,52,22.60
2016,05,06,14,53,22.70
2016,05,06,14,54,22.70
2016,05,06,14,55,22.70
2016,05,06,14,56,22.60
2016,05,06,14,57,22.60
2016,05,06,14,58,22.60
2016,05,06,14,59,22.60
2016,05,06,15,00,22.60
2016,05,06,15,01,22.50
2016,05,06,15,02,22.50
2016,05,06,15,03,22.50
2016,05,06,15,04,22.50
2016,05,06,15,05,22.60
2016,05,06,15,06,22.60
2016,05,06,15,07,22.70
2016,05,06,15,08,22.60
2016,05,06,15,09,22.50
2016,05,06,15,10,22.50
2016,05,06,15,11,22.50
2016,05,06,15,12,22.50
2016,05,06,15,13,22.50
2016,05,06,15,14,22.40
2016,05,06,15,15,22.40
2016,05,06,15,16,22.40
2016,05,06,15,17,22.40
2016,05,06,15,18,22.50
2016,05,06,15,19,22.60
2016,05,06,15,20,22.70
2016,05,06,15,21,22.70
2016,05,06,15,22,22.80
2016,05,06,15,23,22.80
2016,05,06,15,24,22.90
2016,05,06,15,25,22.90
2016,05,06,15,26,22.90
2016,05,06,15,27,22.90
2016,05,06,15,28,22.90
2016,05,06,15,29,22.80
2016,05,06,15,30,22.70
2016,05,06,15,31,22.70
2016,05,06,15,32,22.70
2016,05,06,15,33,22.80
2016,05,06,15,34,22.90
2016,05,06,15,35,23.00
2016,05,06,15,36,23.10
2016,05,06,15,37,23.10
2016,05,06,15,38,23.10
2016,05,06,15,39,23.10
2016,05,06,15,40,23.10
2016,05,06,15,41,23.10
2016,05,06,15,42,23.20
2016,05,06,15,43,23.20
2016,05,06,15,44,23.30
2016,05,06,15,45,23.40
2016,05,06,15,46,23.50
2016,05,06,15,47,23.60
2016,05,06,15,48,23.70
2016,05,06,15,49,23.70
2016,05,06,15,50,23.80
2016,05,06,15,51,23.80
2016,05,06,15,52,23.80
2016,05,06,15,53,23.70
2016,05,06,15,54,23.70
2016,05,06,15,55,23.60
2016,05,06,15,56,23.60
2016,05,06,15,57,23.60
2016,05,06,15,58,23.60
2016,05,06,15,59,23.60
2016,05,06,16,00,23.60
2016,05,06,16,01,23.60
2016,05,06,16,02,23.60
2016,05,06,16,03,23.60
2016,05,06,16,04,23.60
2016,05,06,16,05,23.70
2016,05,06,16,06,23.70
2016,05,06,16,07,23.70
2016,05,06,16,08,23.70
2016,05,06,16,09,23.70
2016,05,06,16,10,23.80
2016,05,06,16,11,23.80
2016,05,06,16,12,23.90
2016,05,06,16,13,23.90
2016,05,06,16,14,24.00
2016,05,06,16,15,24.00
2016,05,06,16,16,24.00
2016,05,06,16,17,24.10
2016,05,06,16,18,24.10
2016,05,06,16,19,24.10
2016,05,06,16,20,24.20
2016,05,06,16,21,24.20
2016,05,06,16,22,24.20
2016,05,06,16,23,24.20
2016,05,06,16,24,24.20
2016,05,06,16,25,24.20
2016,05,06,16,26,24.20
2016,05,06,16,27,24.30
2016,05,06,16,28,24.30
2016,05,06,16,29,24.30
2016,05,06,16,30,24.30
2016,05,06,16,31,24.30
2016,05,06,16,32,24.40
2016,05,06,16,33,24.40
2016,05,06,16,34,24.40
2016,05,06,16,35,24.40
2016,05,06,16,36,24.40
2016,05,06,16,37,24.50
2016,05,06,16,38,24.50
2016,05,06,16,39,24.50
2016,05,06,16,40,24.50
2016,05,06,16,41,24.50
2016,05,06,16,42,24.50
2016,05,06,16,43,24.50
2016,05,06,16,44,24.50
2016,05,06,16,45,24.40
2016,05,06,16,46,24.40
2016,05,06,16,47,24.40
2016,05,06,16,48,24.40
2016,05,06,16,49,24.40
2016,05,06,16,50,24.40
2016,05,06,16,51,24.40
2016,05,06,16,52,24.40
2016,05,06,16,53,24.40
2016,05,06,16,54,24.40
2016,05,06,16,55,24.40
2016,05,06,16,56,24.40
2016,05,06,16,57,24.40
2016,05,06,16,58,24.30
2016,05,06,16,59,24.30
2016,05,06,17,00,24.30
2016,05,06,17,01,24.30
2016,05,06,17,02,24.40
2016,05,06,17,03,24.40
2016,05,06,17,04,24.50
2016,05,06,17,05,24.60
2016,05,06,17,06,24.70
2016,05,06,17,07,24.80
2016,05,06,17,08,24.80
2016,05,06,17,09,24.80
2016,05,06,17,10,24.80
2016,05,06,17,11,24.80
2016,05,06,17,12,24.80
2016,05,06,17,13,24.70
2016,05,06,17,14,24.70
2016,05,06,17,15,24.70
2016,05,06,17,16,24.70
2016,05,06,17,17,24.60
2016,05,06,17,18,24.60
2016,05,06,17,19,24.50